Stations météo

réclame
Mon MeteoGroup
Lugo/Rozas, Espagne (8008): Température de l'air & dewpoint: 16.08.2018 01:00:00 - 22.08.2018 01:00:00 (CEST)Lugo/Rozas, Espagne (8008): Vitesse du vent: 16.08.2018 01:00:00 - 22.08.2018 01:00:00 (CEST)Lugo/Rozas, Espagne (8008): Direction du vent: 16.08.2018 01:00:00 - 22.08.2018 01:00:00 (CEST)Lugo/Rozas, Espagne (8008): reduced air pressure: 16.08.2018 01:00:00 - 22.08.2018 01:00:00 (CEST)Lugo/Rozas, Espagne (8008): visibility: 16.08.2018 01:00:00 - 22.08.2018 01:00:00 (CEST)Lugo/Rozas, Espagne (8008): Quantités de précipitations: 16.08.2018 01:00:00 - 22.08.2018 01:00:00 (CEST)
Date & Time tt [°C] td [°C] ff [km/h] ff [knt] dd ppp [hPa] vv [km] rr [mm]
22.08.2018 01:00:00 18,8 17,5 11 6 ENE 1016,8 20 0,0
22.08.2018 00:00:00 18,6 17,4 4 2 ENE 1016,9 19 0,0
21.08.2018 23:00:00 18,0 16,8 4 2 NE 1017,1 14 -
21.08.2018 22:00:00 18,6 17,1 5 3 NE 1016,4 18 0,0
21.08.2018 21:00:00 20,3 17,5 4 2 NNE 1015,7 20 0,0
21.08.2018 20:00:00 22,5 18,1 8 4 NE 1015,0 20 -
21.08.2018 19:00:00 25,2 18,6 9 5 NE 1014,3 20 0,0
21.08.2018 18:00:00 27,8 18,8 8 4 NE 1013,8 20 0,0
21.08.2018 17:00:00 30,1 17,9 5 3 NE 1013,7 20 -
21.08.2018 16:00:00 29,7 16,8 5 3 NE 1014,4 20 0,0
21.08.2018 15:00:00 28,2 16,5 5 3 ENE 1015,0 20 0,0
21.08.2018 14:00:00 26,7 18,3 5 3 NNE 1015,6 20 -
21.08.2018 13:00:00 24,6 17,8 4 2 NNE 1016,8 20 0,0
21.08.2018 12:00:00 22,0 16,7 5 3 ENE 1017,6 20 0,0
21.08.2018 11:00:00 19,4 16,2 5 3 E 1018,3 20 -
21.08.2018 10:00:00 17,3 15,6 4 2 NE 1018,6 20 0,0
21.08.2018 09:00:00 15,9 15,1 8 4 ENE 1018,8 19 0,0
21.08.2018 08:00:00 15,6 15,0 5 3 ENE 1018,8 16 -
21.08.2018 07:00:00 15,4 14,9 4 2 E 1018,6 12 0,0
21.08.2018 06:00:00 14,5 14,2 4 2 ENE 1018,9 9 0,0
21.08.2018 05:00:00 13,3 12,2 2 1 SSW 1019,3 12 -
21.08.2018 04:00:00 14,2 13,2 2 1 SE 1019,2 6 0,0
21.08.2018 03:00:00 14,8 13,7 2 1 NW 1019,4 10 0,0
21.08.2018 02:00:00 15,4 14,1 2 1 W 1019,7 12 -
21.08.2018 01:00:00 16,2 15,4 8 4 ENE 1019,7 16 0,0
21.08.2018 00:00:00 16,7 15,6 8 4 ENE 1019,8 20 0,0
20.08.2018 23:00:00 17,2 16,1 9 5 ENE 1019,9 20 -
20.08.2018 22:00:00 18,0 16,5 9 5 NE 1019,4 20 0,0
20.08.2018 21:00:00 19,3 16,7 9 5 NE 1018,9 20 0,0
20.08.2018 20:00:00 21,8 17,6 9 5 NE 1018,1 20 -
20.08.2018 19:00:00 23,9 18,3 8 4 NE 1018,0 20 0,0
20.08.2018 18:00:00 25,7 18,6 9 5 NE 1017,9 20 0,0
20.08.2018 17:00:00 26,3 19,4 9 5 NE 1018,3 20 -
20.08.2018 16:00:00 27,3 18,9 8 4 NE 1018,6 20 0,0
20.08.2018 15:00:00 26,7 18,6 9 5 NE 1019,3 20 0,0
20.08.2018 14:00:00 26,4 18,3 8 4 NE 1019,7 20 -
20.08.2018 13:00:00 25,1 17,0 5 3 NE 1020,1 20 0,0
20.08.2018 12:00:00 22,6 15,4 8 4 ENE 1020,8 20 0,0
20.08.2018 11:00:00 20,2 15,0 8 4 ENE 1021,4 20 -
20.08.2018 10:00:00 17,5 14,9 5 3 E 1021,9 20 0,0
20.08.2018 09:00:00 13,4 12,8 2 1 E 1022,8 18 0,0
20.08.2018 08:00:00 12,5 11,2 2 1 S 1022,8 3,0 -
20.08.2018 07:00:00 13,9 12,8 0 0 N 1022,1 12 0,0
20.08.2018 06:00:00 14,2 13,4 4 2 NE 1021,8 10 0,0
20.08.2018 05:00:00 14,8 13,8 5 3 ENE 1021,9 16 -
20.08.2018 04:00:00 15,3 14,5 8 4 ENE 1022,2 13 0,0
20.08.2018 03:00:00 15,9 15,3 9 5 ENE 1022,5 14 0,0
20.08.2018 02:00:00 15,7 14,9 5 3 ENE 1023,0 11 -
20.08.2018 01:00:00 16,0 15,0 8 4 ENE 1023,1 18 0,0
20.08.2018 00:00:00 16,4 15,3 8 4 NE 1023,3 20 0,0
19.08.2018 23:00:00 17,0 15,5 4 2 N 1023,1 19 -
19.08.2018 22:00:00 17,5 15,3 4 2 N 1022,6 20 0,0
19.08.2018 21:00:00 19,2 15,9 5 3 NE 1021,8 20 0,0
19.08.2018 20:00:00 21,3 16,0 5 3 NE 1021,1 20 -
19.08.2018 19:00:00 23,1 15,9 5 3 NNE 1020,8 20 0,0
19.08.2018 18:00:00 23,6 16,4 11 6 NE 1020,7 20 0,0
19.08.2018 17:00:00 24,3 16,0 13 7 NE 1020,7 20 -
19.08.2018 16:00:00 25,5 16,1 16 9 ENE 1020,1 20 0,0
19.08.2018 15:00:00 26,4 15,7 9 5 NE 1020,2 20 0,0
19.08.2018 14:00:00 25,8 14,0 8 4 NNE 1020,5 20 -
19.08.2018 13:00:00 24,8 13,4 4 2 NNE 1021,0 20 0,0
19.08.2018 12:00:00 21,9 13,5 9 5 ENE 1021,6 20 0,0
19.08.2018 11:00:00 18,7 14,2 4 2 NNE 1021,9 20 -
19.08.2018 10:00:00 15,1 13,1 4 2 ENE 1022,8 20 0,0
19.08.2018 09:00:00 11,3 10,7 0 0 N 1023,1 7 0,0
19.08.2018 08:00:00 10,2 9,3 2 1 ESE 1023,1 4,7 -
19.08.2018 07:00:00 10,5 9,1 2 1 ESE 1022,8 5 0,0
19.08.2018 06:00:00 11,2 9,8 2 1 ESE 1022,8 3,9 0,0
19.08.2018 05:00:00 12,4 11,0 4 2 ENE 1022,7 - -
19.08.2018 04:00:00 13,1 12,2 4 2 ENE 1022,7 - 0,0
19.08.2018 03:00:00 13,1 12,0 4 2 NE 1022,8 14 0,0
19.08.2018 02:00:00 14,1 12,8 8 4 ENE 1022,4 20 -
19.08.2018 01:00:00 14,5 13,2 9 5 ENE 1022,5 20 0,0
19.08.2018 00:00:00 14,3 13,0 8 4 ENE 1022,6 20 0,0
18.08.2018 23:00:00 15,0 13,2 8 4 NE 1022,2 20 -
18.08.2018 22:00:00 16,3 13,2 5 3 ENE 1021,6 20 0,0
18.08.2018 21:00:00 17,8 13,5 9 5 NE 1020,8 20 0,0
18.08.2018 20:00:00 19,8 13,7 8 4 NE 1020,2 20 -
18.08.2018 19:00:00 21,3 14,2 13 7 NE 1019,8 20 0,0
18.08.2018 18:00:00 22,3 14,7 8 4 NE 1019,6 20 0,0
18.08.2018 17:00:00 22,9 14,7 9 5 NE 1019,6 20 -
18.08.2018 16:00:00 24,3 15,2 8 4 NE 1019,8 20 0,0
18.08.2018 15:00:00 24,1 14,5 8 4 NNE 1020,1 20 0,0
18.08.2018 14:00:00 22,4 13,2 11 6 NE 1020,8 20 -
18.08.2018 13:00:00 20,7 12,7 9 5 NE 1021,7 20 0,0
18.08.2018 12:00:00 19,8 12,5 9 5 NE 1022,0 20 0,0
18.08.2018 11:00:00 17,5 11,1 13 7 ENE 1022,5 20 -
18.08.2018 10:00:00 15,1 11,7 9 5 ENE 1022,8 20 0,0
18.08.2018 09:00:00 10,5 10,2 4 2 ENE 1023,7 11 0,0
18.08.2018 08:00:00 8,5 7,7 2 1 SE 1023,8 4,9 -
18.08.2018 07:00:00 8,7 7,9 5 3 SE 1023,7 - 0,0
18.08.2018 06:00:00 9,4 8,3 2 1 E 1023,7 - 0,0
18.08.2018 05:00:00 10,2 8,8 0 0 N 1023,7 6 -
18.08.2018 04:00:00 10,6 9,5 4 2 W 1023,7 6 0,0
18.08.2018 03:00:00 12,1 10,5 2 1 E 1023,7 8 0,0
18.08.2018 02:00:00 12,4 11,0 2 1 E 1023,9 10 -
18.08.2018 01:00:00 13,0 11,1 4 2 ENE 1024,0 13 0,0
18.08.2018 00:00:00 13,7 11,4 5 3 NE 1023,9 20 0,0
17.08.2018 23:00:00 14,0 11,9 5 3 NE 1023,7 20 -
17.08.2018 22:00:00 14,6 12,1 5 3 NE 1023,0 20 0,0
17.08.2018 21:00:00 16,1 12,6 9 5 NE 1022,5 20 0,0
17.08.2018 20:00:00 16,9 12,6 13 7 NE 1022,3 20 -
17.08.2018 19:00:00 17,9 13,0 15 8 ENE 1022,3 20 0,0
17.08.2018 18:00:00 18,9 13,3 16 9 ENE 1022,3 20 0,0
17.08.2018 17:00:00 18,9 13,3 15 8 NE 1022,7 20 -
17.08.2018 16:00:00 18,6 13,7 13 7 NE 1023,0 20 0,0
17.08.2018 15:00:00 18,6 13,5 11 6 ENE 1023,4 20 0,0
17.08.2018 14:00:00 17,2 13,1 16 9 ENE 1024,0 20 -
17.08.2018 13:00:00 17,1 13,0 18 10 ENE 1024,0 20 0,0
17.08.2018 12:00:00 15,4 12,3 15 8 ENE 1024,8 20 0,0
17.08.2018 11:00:00 15,3 12,4 13 7 ENE 1024,5 20 -
17.08.2018 10:00:00 14,7 12,0 11 6 NE 1024,2 20 0,0
17.08.2018 09:00:00 13,8 12,0 11 6 NE 1024,1 20 0,0
17.08.2018 08:00:00 13,4 12,1 5 3 ENE 1023,9 20 -
17.08.2018 07:00:00 13,3 12,2 8 4 NE 1023,6 20 0,0
17.08.2018 06:00:00 13,5 12,6 8 4 NE 1023,2 20 0,0
17.08.2018 05:00:00 14,0 13,2 8 4 NE 1022,9 20 -
17.08.2018 04:00:00 14,7 13,9 5 3 NE 1022,4 20 0,0
17.08.2018 03:00:00 15,1 14,5 5 3 NE 1022,4 8 0,2
17.08.2018 02:00:00 15,1 14,5 4 2 NNE 1022,5 6 -
17.08.2018 01:00:00 15,0 14,2 5 3 NE 1022,3 19 0,0
17.08.2018 00:00:00 15,0 14,0 9 5 ENE 1022,3 19 0,0
16.08.2018 23:00:00 15,7 14,4 11 6 NE 1021,9 13 -
16.08.2018 22:00:00 16,8 14,6 8 4 ENE 1020,8 20 0,0
16.08.2018 21:00:00 17,6 14,1 8 4 NE 1020,3 20 0,0
16.08.2018 20:00:00 19,0 14,7 8 4 NE 1019,5 20 -
16.08.2018 19:00:00 20,7 15,3 9 5 NE 1019,2 20 0,0
16.08.2018 18:00:00 21,6 15,7 9 5 NE 1018,9 20 0,0
16.08.2018 17:00:00 22,3 15,9 11 6 NE 1018,7 20 -
16.08.2018 16:00:00 21,7 16,4 8 4 NNE 1018,9 20 0,0
16.08.2018 15:00:00 22,6 16,4 15 8 ENE 1018,7 20 0,0
16.08.2018 14:00:00 22,5 16,5 11 6 NE 1018,5 20 -
16.08.2018 13:00:00 21,6 16,1 9 5 NE 1018,6 20 0,0
16.08.2018 12:00:00 20,3 16,5 11 6 ENE 1018,9 20 0,0
16.08.2018 11:00:00 19,3 16,5 5 3 NE 1018,9 20 -
16.08.2018 10:00:00 18,3 16,3 4 2 N 1018,9 20 0,0
16.08.2018 09:00:00 15,4 14,4 2 1 WNW 1019,2 20 0,0
16.08.2018 08:00:00 14,1 12,7 2 1 SSE 1019,1 13 -
16.08.2018 07:00:00 15,3 13,8 2 1 N 1018,4 18 0,0
16.08.2018 06:00:00 16,1 13,9 2 1 N 1018,2 20 0,0
16.08.2018 05:00:00 17,0 14,5 4 2 NE 1017,8 20 -
16.08.2018 04:00:00 17,2 14,8 4 2 NNE 1017,9 20 0,0
16.08.2018 03:00:00 17,3 15,1 4 2 NE 1018,1 20 0,0
16.08.2018 02:00:00 17,4 15,4 8 4 NE 1018,3 20 -
16.08.2018 01:00:00 17,5 15,5 9 5 NE 1018,3 20 0,0

tt = Température de l'air
td = dewpoint
ff = Vitesse du vent
dd = Direction du vent
ppp = reduced air pressure
vv = visibility
rr = Quantités de précipitations

stations d'obs. à proximité